KG7QQL Weather Reports


time (UTC)temp
C
wind
direction
speed
KPH
gust
KPH
rain 1hr
cm
rain 24hr
cm
rain mn
cm
humidity
%
barometer
mb
20260505075435 12 118 0.0 14.5 0.00 0.00 0.00 90
20260505074933 12 112 6.4 12.9 0.00 0.00 0.00 90
20260505074430 12 89 3.2 16.1 0.00 0.00 0.00 90
20260505073927 12 113 6.4 9.7 0.00 0.00 0.00 90
20260505073425 12 107 11.3 12.9 0.00 0.00 0.00 90
20260505072922 12 99 6.4 14.5 0.00 0.00 0.00 90
20260505072418 12 96 4.8 8.0 0.00 0.00 0.00 89
20260505071914 12 88 4.8 12.9 0.00 0.00 0.00 89
20260505071410 12 108 0.0 9.7 0.00 0.00 0.00 89
20260505070909 12 87 4.8 12.9 0.00 0.00 0.00 89
20260505070404 12 112 3.2 9.7 0.00 0.00 0.00 88
20260505065900 13 103 6.4 17.7 0.00 0.00 0.00 88
20260505065357 13 109 6.4 16.1 0.00 0.00 0.00 88
20260505064854 13 105 8.0 12.9 0.00 0.00 0.00 88
20260505064351 13 116 11.3 14.5 0.00 0.00 0.00 87
20260505063850 13 106 4.8 12.9 0.00 0.00 0.00 87
20260505063345 13 95 8.0 22.5 0.00 0.00 0.00 87
20260505062842 13 61 6.4 14.5 0.00 0.00 0.00 86
20260505062339 13 122 4.8 11.3 0.00 0.00 0.00 86
20260505061836 13 117 4.8 14.5 0.00 0.00 0.00 86
20260505061334 13 113 4.8 9.7 0.00 0.00 0.00 85
20260505060831 13 159 3.2 20.9 0.00 0.00 0.00 85
20260505060328 14 108 6.4 17.7 0.00 0.00 0.00 85
20260505055824 14 95 4.8 12.9 0.00 0.00 0.00 84
20260505055320 14 100 4.8 12.9 0.00 0.00 0.00 84
20260505054818 14 76 4.8 16.1 0.00 0.00 0.00 84
20260505054315 14 104 6.4 16.1 0.00 0.00 0.00 84
20260505053813 14 117 4.8 19.3 0.00 0.00 0.00 83
20260505053310 15 107 6.4 16.1 0.00 0.00 0.00 83
20260505052806 15 104 6.4 11.3 0.00 0.00 0.00 82
20260505052304 15 126 4.8 14.5 0.00 0.00 0.00 82
20260505051800 15 119 4.8 11.3 0.00 0.00 0.00 81
20260505051258 15 104 9.7 17.7 0.00 0.00 0.00 81
20260505050756 15 94 8.0 20.9 0.00 0.00 0.00 81
20260505050254 15 107 8.0 19.3 0.00 0.00 0.00 80
20260505041723 17 183 0.0 8.0 0.00 0.00 0.00 75
20260505041221 17 216 0.0 6.4 0.00 0.00 0.00 75
20260505040718 17 353 3.2 6.4 0.00 0.00 0.00 74
20260505040215 17 261 0.0 6.4 0.00 0.00 0.00 74
20260505035712 17 171 4.8 4.8 0.00 0.00 0.00 73
20260505035208 18 124 1.6 6.4 0.00 0.00 0.00 72
20260505034704 18 107 3.2 9.7 0.00 0.00 0.00 72
20260505034202 17 88 0.0 3.2 0.00 0.00 0.00 73
20260505033658 18 62 3.2 4.8 0.00 0.00 0.00 72
20260505033156 18 127 0.0 4.8 0.00 0.00 0.00 71
20260505032654 18 129 0.0 4.8 0.00 0.00 0.00 70
20260505032155 19 69 0.0 3.2 0.00 0.00 0.00 69
20260505031652 19 135 0.0 1.6 0.00 0.00 0.00 67
20260505031149 20 107 1.6 3.2 0.00 0.00 0.00 65
20260505030646 20 129 0.0 3.2 0.00 0.00 0.00 64
20260505030141 20 19 0.0 6.4 0.00 0.00 0.00 63
20260505025638 20 225 1.6 6.4 0.00 0.00 0.00 62
20260505025136 21 29 0.0 4.8 0.00 0.00 0.00 60
20260505024633 21 309 0.0 4.8 0.00 0.00 0.00 56
20260505024130 21 208 3.2 4.8 0.00 0.00 0.00 54
20260505023628 22 218 1.6 4.8 0.00 0.00 0.00 53
20260505023125 22 241 0.0 4.8 0.00 0.00 0.00 52
20260505022623 22 236 1.6 8.0 0.00 0.00 0.00 53
20260505022119 23 213 1.6 4.8 0.00 0.00 0.00 51
20260505021616 23 349 3.2 6.4 0.00 0.00 0.00 51
20260505021113 22 232 4.8 4.8 0.00 0.00 0.00 52
20260505020608 22 259 1.6 8.0 0.00 0.00 0.00 53
20260505020104 22 334 4.8 12.9 0.00 0.00 0.00 54
20260505015602 23 330 4.8 12.9 0.00 0.00 0.00 52
20260505015058 24 292 0.0 6.4 0.00 0.00 0.00 51
20260505014555 25 203 3.2 11.3 0.00 0.00 0.00 50
20260505014052 25 53 4.8 11.3 0.00 0.00 0.00 50
20260505013549 25 80 4.8 8.0 0.00 0.00 0.00 49
20260505013047 25 89 0.0 8.0 0.00 0.00 0.00 50
20260505012545 26 182 1.6 8.0 0.00 0.00 0.00 48
20260505012042 26 105 1.6 8.0 0.00 0.00 0.00 48
20260505011537 26 255 4.8 8.0 0.00 0.00 0.00 48
20260505011035 26 224 3.2 6.4 0.00 0.00 0.00 48
20260505010530 26 50 1.6 6.4 0.00 0.00 0.00 48
20260505010027 26 120 0.0 11.3 0.00 0.00 0.00 47
20260505005523 26 177 1.6 9.7 0.00 0.00 0.00 46
20260505005021 26 117 3.2 14.5 0.00 0.00 0.00 45
20260505004518 26 253 1.6 9.7 0.00 0.00 0.00 44
20260505004014 26 239 4.8 8.0 0.00 0.00 0.00 44
20260505003511 25 238 0.0 11.3 0.00 0.00 0.00 45
20260505003009 26 99 3.2 6.4 0.00 0.00 0.00 43
20260505002504 27 245 6.4 11.3 0.00 0.00 0.00 43
20260505002003 26 131 0.0 8.0 0.00 0.00 0.00 44
20260505001500 26 119 8.0 9.7 0.00 0.00 0.00 43
20260505000956 27 104 4.8 8.0 0.00 0.00 0.00 42
20260505000454 26 131 4.8 9.7 0.00 0.00 0.00 44
20260504235951 26 108 4.8 9.7 0.00 0.00 0.00 43
20260504235448 26 186 3.2 8.0 0.00 0.00 0.00 44
20260504234945 26 115 4.8 12.9 0.00 0.00 0.00 43
20260504234442 27 241 6.4 9.7 0.00 0.00 0.00 41
20260504233938 27 112 3.2 8.0 0.00 0.00 0.00 41
20260504233434 26 230 4.8 9.7 0.00 0.00 0.00 43
20260504232931 27 212 3.2 6.4 0.00 0.00 0.00 40
20260504232428 26 312 0.0 9.7 0.00 0.00 0.00 42
20260504231926 26 102 3.2 11.3 0.00 0.00 0.00 42
20260504231422 26 215 0.0 9.7 0.00 0.00 0.00 43
20260504230918 26 103 0.0 9.7 0.00 0.00 0.00 42
20260504230415 26 180 0.0 8.0 0.00 0.00 0.00 42
20260504225914 26 199 0.0 8.0 0.00 0.00 0.00 43
20260504225410 25 98 4.8 14.5 0.00 0.00 0.00 43
20260504224908 25 120 4.8 9.7 0.00 0.00 0.00 43
20260504224404 25 96 3.2 11.3 0.00 0.00 0.00 43
20260504223902 25 239 3.2 14.5 0.00 0.00 0.00 43
20260504223356 25 121 8.0 12.9 0.00 0.00 0.00 42
20260504222853 26 234 1.6 9.7 0.00 0.00 0.00 45
20260504222350 25 132 3.2 17.7 0.00 0.00 0.00 42
20260504221849 25 123 8.0 12.9 0.00 0.00 0.00 44
20260504221345 25 64 1.6 9.7 0.00 0.00 0.00 45
20260504220842 25 190 0.0 9.7 0.00 0.00 0.00 48
20260504220339 25 245 4.8 14.5 0.00 0.00 0.00 45
20260504215836 25 230 6.4 11.3 0.00 0.00 0.00 46
20260504215332 24 236 3.2 14.5 0.00 0.00 0.00 50
20260504214828 25 209 1.6 8.0 0.00 0.00 0.00 49
20260504214326 25 195 3.2 8.0 0.00 0.00 0.00 49
20260504213822 25 219 6.4 11.3 0.00 0.00 0.00 49
20260504213318 25 230 0.0 8.0 0.00 0.00 0.00 50
20260504212816 24 93 0.0 14.5 0.00 0.00 0.00 51
20260504212312 24 80 4.8 11.3 0.00 0.00 0.00 52
20260504211810 25 119 8.0 11.3 0.00 0.00 0.00 51
20260504211305 24 116 0.0 9.7 0.00 0.00 0.00 51
20260504210803 25 124 3.2 8.0 0.00 0.00 0.00 51
20260504210300 24 233 3.2 9.7 0.00 0.00 0.00 54
20260504205757 24 129 3.2 4.8 0.00 0.00 0.00 53
20260504205255 23 117 8.0 14.5 0.00 0.00 0.00 53
20260504204753 24 259 3.2 9.7 0.00 0.00 0.00 54
20260504204251 23 222 1.6 9.7 0.00 0.00 0.00 54
20260504203750 24 217 0.0 12.9 0.00 0.00 0.00 54
20260504203246 24 223 3.2 11.3 0.00 0.00 0.00 54
20260504202741 24 111 4.8 6.4 0.00 0.00 0.00 52
20260504202239 23 223 6.4 9.7 0.00 0.00 0.00 54
20260504201736 23 81 1.6 8.0 0.00 0.00 0.00 55
20260504201233 23 152 0.0 6.4 0.00 0.00 0.00 54
20260504200731 23 269 0.0 9.7 0.00 0.00 0.00 54
20260504200226 23 184 3.2 6.4 0.00 0.00 0.00 53
20260504195723 22 206 1.6 12.9 0.00 0.00 0.00 57
20260504195219 22 206 3.2 12.9 0.00 0.00 0.00 55
20260504194716 23 232 3.2 11.3 0.00 0.00 0.00 54
20260504194212 23 147 3.2 4.8 0.00 0.00 0.00 51
20260504193709 24 124 3.2 11.3 0.00 0.00 0.00 49
20260504193206 23 251 0.0 4.8 0.00 0.00 0.00 51
20260504192705 23 93 1.6 9.7 0.00 0.00 0.00 50
20260504192202 23 49 3.2 9.7 0.00 0.00 0.00 52
20260504191701 22 100 0.0 8.0 0.00 0.00 0.00 55
20260504191156 23 235 0.0 8.0 0.00 0.00 0.00 50
20260504190652 22 142 3.2 6.4 0.00 0.00 0.00 53
20260504190149 23 216 4.8 11.3 0.00 0.00 0.00 52
20260504185646 23 154 1.6 4.8 0.00 0.00 0.00 51
20260504185142 23 32 3.2 6.4 0.00 0.00 0.00 51
20260504184639 23 82 3.2 4.8 0.00 0.00 0.00 50
20260504184133 22 242 0.0 6.4 0.00 0.00 0.00 51
20260504183631 22 203 4.8 9.7 0.00 0.00 0.00 49
20260504183128 22 209 4.8 8.0 0.00 0.00 0.00 51
20260504182626 21 233 6.4 9.7 0.00 0.00 0.00 52
20260504182123 21 230 4.8 11.3 0.00 0.00 0.00 53
20260504181620 21 237 3.2 11.3 0.00 0.00 0.00 52
20260504181118 21 221 3.2 9.7 0.00 0.00 0.00 55
20260504180617 21 229 4.8 6.4 0.00 0.00 0.00 55
20260504180115 20 130 0.0 9.7 0.00 0.00 0.00 60
20260504175612 20 240 4.8 6.4 0.00 0.00 0.00 59
20260504175109 21 239 4.8 8.0 0.00 0.00 0.00 56
20260504174607 21 285 3.2 6.4 0.00 0.00 0.00 55
20260504174103 20 214 3.2 8.0 0.00 0.00 0.00 59
20260504173600 20 238 3.2 6.4 0.00 0.00 0.00 58
20260504173058 20 185 0.0 4.8 0.00 0.00 0.00 56
20260504172554 20 282 3.2 6.4 0.00 0.00 0.00 59
20260504172050 20 278 1.6 4.8 0.00 0.00 0.00 58
20260504171547 20 288 3.2 6.4 0.00 0.00 0.00 60
20260504171044 20 221 4.8 4.8 0.00 0.00 0.00 60
20260504170540 20 296 1.6 4.8 0.00 0.00 0.00 63
20260504150924 15 303 0.0 1.6 0.00 0.00 0.00 77
20260504150421 15 321 0.0 3.2 0.00 0.00 0.00 77
20260504140847 12 86 3.2 8.0 0.00 0.00 0.00 84
20260504140343 12 91 4.8 6.4 0.00 0.00 0.00 85
20260504130812 11 103 1.6 3.2 0.00 0.00 0.00 87
20260504130308 11 68 1.6 4.8 0.00 0.00 0.00 85
20260504120232 11 87 1.6 3.2 0.00 0.00 0.00 84
20260504110659 12 79 4.8 6.4 0.00 0.00 0.00 80
20260504110155 12 61 4.8 6.4 0.00 0.00 0.00 80
20260504100615 12 96 4.8 4.8 0.00 0.00 0.00 83
20260504100114 12 63 0.0 4.8 0.00 0.00 0.00 83
20260504081507 15 235 0.0 3.2 0.00 0.00 0.00 67
20260504081002 15 63 1.6 3.2 0.00 0.00 0.00 65
20260504080459 15 58 0.0 3.2 0.00 0.00 0.00 65